Location: Brookview Estates
(36.0476°N, 86.6931°W)
Time: 10:19:29
(UTC+00:00)

Cosmos 372 Rocket - Pass Details

Date: 30 March 2020
Orbit: 739 x 767 km, 74.1° (Epoch: 25 May)

Event Time Altitude Azimuth Distance (km) Brightness Sun altitude
Exits shadow 09:38:47 40° 184° (S) 1,122 4.6 -23.5°
Maximum altitude 09:40:43 78° 105° (ESE) 786 4.0 -23.2°
Drops below altitude 10° 09:45:57 10° 21° (NNE) 2,304 7.0 -22.2°
Sets 09:48:19 0° 20° (NNE) 3,230 7.9 -21.7°
